Location: Dos Palmas
(32.4468°N, 116.8732°W)
Time: 05:07:03
(UTC+00:00)

Spot 2 Rocket - Pass Details

Date: 20 June 2021
Orbit: 757 x 772 km, 98.5° (Epoch: 29 July)

Event Time Altitude Azimuth Distance (km) Brightness Sun altitude
Exits shadow 05:26:49 63° 194° (SSW) 847 3.4 -24.6°
Maximum altitude 05:27:34 77° 257° (WSW) 783 3.5 -24.7°
Drops below altitude 10° 05:32:39 10° 344° (NNW) 2,304 6.9 -25.3°
Sets 05:34:58 0° 346° (NNW) 3,236 7.9 -25.6°
